Location: Penton Mewsey
(51.2167°N, 1.5167°W)
Time: 18:51:45
(UTC+00:00)

Terra - Pass Details

Date: 30 March 2020
Orbit: 701 x 703 km, 98.2° (Epoch: 02 June)

Event Time Altitude Azimuth Distance (km) Brightness Sun altitude
Exits shadow 21:32:09 57° 53° (NE) 833 2.0 -25.1°
Drops below altitude 10° 21:36:33 10° 352° (N) 2,184 5.0 -25.6°
Sets 21:38:51 0° 349° (N) 3,108 6.0 -25.8°
